Home > Time Zones > World Clock > Weather > India > Alwar > Past weeks

Flag Weather past 2 weeks in Alwar, Rajasthan, India

Now
57 °F

Clear.


Feels Like: 57 °F
Forecast: 50 / 80 °F
Wind: No wind

Location: Jaipur / Sanganer

Current Time: Nov 24, 2014 at 9:44:16 AM

Latest Report: Nov 24, 2014 at 7:30 AM


Visibility: 1 mi

Pressure: 30.04 "Hg

Humidity: 51%

Dew point: 39 °F

Location of AlwarLocation

Historic Weather in Alwar — Graph

°F

Alwar temperature yesterday

Maximum temperature yesterday: 84 °F (at 1:00 PM)
Minimum temperature yesterday: 61 °F (at 3:00 AM)
Average temperature yesterday: 72 °F

Past Weeks' High & Low Weather Summary

 TemperatureHumidityPressure
High88 °F (Nov 9, 1:00 PM)64% (Nov 11, 5:30 AM)30.15 "Hg (Nov 11, 5:30 AM)
Low54 °F (Nov 16, 5:30 AM)8% (Nov 15, 4:00 PM)29.89 "Hg (Nov 22, 3:00 PM)
Average72 °F35%30.03 "Hg
* Reported Nov 9 8:00 AM — Nov 24 7:30 AM, Alwar, Weather by CustomWeather, © 2014

Note: Actual official high and low records may vary slightly from our data, if they occured in-between our weather recording intervals... More about our weather records

Advertising

Alwar weather history for previous 24 hours

 ConditionsComfort  
Time TempWeatherWind HumidityBarometerVisibility
7:30 AM
Nov 24
57 °FClear.No wind51%30.04 "Hg1 mi
7:00 AM57 °FPassing clouds.No wind51%30.04 "Hg1 mi
6:30 AM57 °FPassing clouds.No wind51%30.04 "Hg1 mi
6:00 AM57 °FPassing clouds.No wind51%30.01 "Hg1 mi
5:30 AM59 °FPassing clouds.No wind48%30.01 "Hg1 mi
5:00 AM59 °FPassing clouds.No wind45%29.98 "Hg1 mi
4:00 AM61 °FPassing clouds.No wind39%29.98 "Hg1 mi
3:00 AM63 °FPassing clouds.No wind37%30.01 "Hg1 mi
2:00 AM66 °FPassing clouds.2 mph30%30.01 "Hg1 mi
11:00 PM
Nov 23
72 °FPassing clouds.6 mph31%30.01 "Hg1 mi
10:00 PM72 °FPassing clouds.5 mph31%30.01 "Hg1 mi
9:30 PM72 °FPassing clouds.6 mph31%30.01 "Hg1 mi
9:00 PM72 °FHaze.5 mph29%30.01 "Hg1 mi
7:00 PM72 °FHaze.No wind36%29.98 "Hg1 mi
6:00 PM77 °FHaze.2 mph22%29.95 "Hg1 mi
5:00 PM81 °FHaze.2 mph20%29.95 "Hg1 mi
4:00 PM82 °FHaze.7 mph17%29.95 "Hg1 mi
3:00 PM84 °FHaze.5 mph18%29.95 "Hg1 mi
2:00 PM84 °FHaze.3 mph18%29.98 "Hg1 mi
1:00 PM84 °FHaze.3 mph18%30.01 "Hg1 mi
12:00 PM81 °FHaze.3 mph26%30.04 "Hg1 mi
11:00 AM79 °FHaze.6 mph26%30.07 "Hg1 mi
10:00 AM73 °FHaze.8 mph31%30.07 "Hg1 mi
9:00 AM72 °FHaze.7 mph33%30.04 "Hg1 mi
Weather by CustomWeather, © 2014

See weather overviewHow to use our weather pages